Regional Weather Roundup
Issued by NWS Nashville, TN

Home | Current Version | Previous Version | Text Only | Print | Product List | Glossary On
Versions: 1 2 3 4 5 6 7 8 9 10 11 12 13 14 15 16 17 18 19 20 21 22 23 24 25 26 27
000
ASUS44 KOHX 051810
RWROHX
MIDDLE TENNESSEE HOURLY WEATHER ROUNDUP
NATIONAL WEATHER SERVICE NASHVILLE TN
100 PM CDT THU MAY 05 2016

NOTE: "FAIR" INDICATES FEW OR NO CLOUDS BELOW 12,000 FEET WITH
NO SIGNIFICANT WEATHER AND/OR OBSTRUCTIONS TO VISIBILITY.

* THESE REPORTS ARE NOT UNDER NWS QUALITY CONTROL AND MAY NOT
  REPORT WEATHER SUCH AS PRECIPITATION AND FOG.


TNZ005>011-023>034-057-059-062>066-078-080-051900
...NORTHERN MIDDLE TENNESSEE...

CITY           SKY/WX    TMP DP  RH WIND       PRES   REMARKS
CLARKSVILLE    CLOUDY    53  39  59 N18       29.94R
CROSSVILLE     PTSUNNY   47  41  80 NW16G23   29.82S
NASHVILLE      PTSUNNY   55  37  50 N16G28    29.91R
SMYRNA         CLOUDY    55  39  54 N20G25    29.91R
SPARTA         PTSUNNY   50  45  81 N13       29.85R
$$
TNZ056-058-060-061-075>077-079-093>097-051900
...SOUTHERN MIDDLE TENNESSEE...

CITY           SKY/WX    TMP DP  RH WIND       PRES   REMARKS
COLUMBIA       MOSUNNY   63  43  48 N16       29.86R
MCMINNVILLE    PTSUNNY   52  43  71 N21       29.86R
SHELBYVILLE    PTSUNNY   61  45  55 NW16      29.86R
TULLAHOMA      MOSUNNY   57  39  51 NW17      29.84S
WINCHESTER     PTSUNNY   59  39  47 NW14      29.83R
$$


...KEY TO REMARKS...
VSB - VISIBILITY IN MILES
WCI - WIND CHILL INDEX
HX  - HEAT INDEX





USA.gov is the U.S. government's official web portal to all federal, state and local government web resources and services.